Погода в Воронцовке

Россия / Краснодарский край     46°39′14″N   38°04′59″E
темп.,
°C
ветер,
м/с
пор.,
м/с
влажн.,
%
обл.,
%
осадки,
мм/ч
давл.,
гПа
погр.,
м
13 июня, вс
вс1300:00+21юз677956 0.1 1012345
03:00+21зюз46765 0.4 1012287
06:00+21юз34731 0.2 1011166
09:00+22з22674 0.2 1012200
12:00+23з44621 0.0 1012384
15:00+23зюз55650 0.0 1012448
18:00+23зюз44690 0.0 1011269
21:00+22ююз34710 0.0 1012119
14 июня, пн
пн1400:00+21ю34755 0.1 1012165
03:00+20ю337889 1.2 1012153
06:00+20ююв337868 0.7 1012178
09:00+21в2374100 0.9 1012288
12:00+22св447195 0.0 1012298
15:00+23ссв6774100 0.1 1012249
18:00+24св676810 0.0 1011131
21:00+23в577387 0.0 1011112
15 июня, вт
вт1500:00+22всв69783 0.6 1010225
03:00+22всв7979100 0.9 1010356
06:00+21всв81083100 1.4 1010388
09:00+20вюв6884100 3.5 1011356
12:00+21вюв1375100 0.0 1011452
15:00+22ссв3372100 0.0 1010397
18:00+20ююв6684100 2.6 1010304
21:00+19юв5587100 5.1 1010229
16 июня, ср
ср1600:00+20ююз578129 0.1 1009425
03:00+20юз68820 0.1 1010652
06:00+20юз677756 0.0 1010789
09:00+21юз666991 0.0 1010939
12:00+21юз6767100 0.0 1011929
15:00+20ююз9977100 0.2 1012897
18:00+20ююз567481 0.3 1012502
21:00+20ююз337492 0.4 1013427
17 июня, чт
чт1700:00+20зюз11732 0.0 1012325
03:00+20в227157 0.0 1012277
06:00+21св2269100 0.0 1012437
09:00+20ссв5674100 0.0 1012509
12:00+19св91190100 5.6 1013580
15:00+20ссв81088100 18.2 1012527
18:00+20с7988100 0.9 1012708
21:00+21ссв4587100 1.9 1013489